Home > Weather > St. Louis > Past weeks

Flag for USA Past Weather in St. Louis, Missouri, USA — Yesterday and Last 2 Weeks

Now
79 °F

Passing clouds.


Feels Like: 81 °F
Forecast: 69 / 85 °F
Wind: 5 mph from Northwest

Location: Lambert-St. Louis International Airport

Current Time: Jul 30, 2016 at 9:58:34 AM

Latest Report: Jul 30, 2016 at 8:51 AM


Visibility: 10 mi

Pressure: 29.96 "Hg

Humidity: 67%

Dew Point: 67 °F

Location of St. LouisLocation

Past Weather in St. Louis — Graph

°F

St. Louis Temperature Yesterday

Maximum temperature yesterday: 86 °F (at 4:51 PM)
Minimum temperature yesterday: 74 °F (at 4:51 AM)
Average temperature yesterday: 80 °F

High & Low Weather Summary for the Past Weeks

 TemperatureHumidityPressure
High100 °F (Jul 24, 3:51 PM)91% (Jul 19, 8:59 PM)30.26 "Hg (Jul 19, 8:59 PM)
Low71 °F (Jul 16, 5:51 AM)38% (Jul 24, 3:51 PM)29.82 "Hg (Jul 28, 3:51 PM)
Average84 °F67%29.99 "Hg
* Reported Jul 15 7:51 AM — Jul 30 7:51 AM, St. Louis, Weather by CustomWeather, © 2016

Note: Actual official high and low records may vary slightly from our data, if they occured in-between our weather recording intervals... More about our weather records

Advertising

St. Louis Weather History for the Previous 24 Hours

Scroll right to see more
 ConditionsComfort  
Time TempWeatherWind HumidityBarometerVisibility
7:51 AM
Sat, Jul 30
77 °FPassing clouds.5 mph71%29.95 "Hg10 mi
6:51 AM73 °FPassing clouds.3 mph81%29.95 "Hg10 mi
5:51 AM72 °FPassing clouds.5 mph84%29.93 "Hg10 mi
4:51 AM73 °FPassing clouds.3 mph81%29.91 "Hg10 mi
3:51 AM73 °FPassing clouds.3 mph81%29.92 "Hg10 mi
2:51 AM73 °FPassing clouds.3 mph81%29.91 "Hg10 mi
1:51 AM74 °FPassing clouds.No wind79%29.92 "Hg10 mi
12:51 AM76 °FPassing clouds.No wind74%29.92 "Hg10 mi
11:51 PM
Fri, Jul 29
77 °FPassing clouds.6 mph71%29.92 "Hg10 mi
10:51 PM78 °FPassing clouds.5 mph69%29.91 "Hg10 mi
9:51 PM78 °FPassing clouds.3 mph69%29.90 "Hg10 mi
8:51 PM79 °FScattered clouds.6 mph67%29.89 "Hg10 mi
7:51 PM82 °FBroken clouds.8 mph58%29.88 "Hg10 mi
6:51 PM83 °FBroken clouds.12 mph61%29.88 "Hg10 mi
5:51 PM85 °FBroken clouds.10 mph59%29.88 "Hg10 mi
4:51 PM86 °FBroken clouds.8 mph57%29.88 "Hg10 mi
3:51 PM85 °FBroken clouds.6 mph57%29.88 "Hg10 mi
2:51 PM85 °FBroken clouds.9 mph57%29.90 "Hg10 mi
1:51 PM85 °FBroken clouds.7 mph53%29.91 "Hg10 mi
12:51 PM82 °FPartly sunny.9 mph60%29.93 "Hg10 mi
11:51 AM84 °FPartly sunny.6 mph61%29.93 "Hg10 mi
10:51 AM83 °FPartly sunny.3 mph57%29.93 "Hg10 mi
9:51 AM81 °FPartly sunny.5 mph65%29.93 "Hg10 mi
Weather by CustomWeather, © 2016

See weather overviewHow to use our weather pages